Location: Newark
(21.1200°N, 73.4000°E)
Time: 05:02:51
(UTC+00:00)

Courier 1B Rocket - Pass Details

Date: 23 January 2020
Orbit: 920 x 1202 km, 28.2° (Epoch: 19 February)

Event Time Altitude Azimuth Distance (km) Brightness Sun altitude
Rises 05:32:26 0° 236° (WSW) 4,012 8.2 41.8°
Reaches altitude 10° 05:35:22 10° 233° (SW) 3,017 7.7 42.2°
Maximum altitude 05:42:39 60° 155° (SSE) 1,226 7.4 43.1°
Drops below altitude 10° 05:49:26 10° 77° (ENE) 2,815 7.7 43.9°
Sets 05:52:04 0° 74° (ENE) 3,726 8.2 44.2°
